COSMOS 2219

Last updated on Sun Jun 21 2026 00:02:15 GMT+0000 (Coordinated Universal Time)

1 22219U 92076A 26171.44454852 .00000332 00000+0 19868-3 0 9995 2 22219 71.0582 163.2619 0016764 38.9003 321.3322 14.14101263732906
UTC large
Height (km)
Speed (km/s)
/
Latitude / Longitude
Inclination (degrees)
Orbital Period (minutes)
Azimuth
Elevation
Range (km)
Doppler Factor

Next 0 passes for location: London (51.5072 / 0.1276)

No passes found over London.
COSMOS 2219